"Pseudo-MPEC" for P115ZhR

Created 2020 Sep 19 5:07:24 UT using Find_Orb

Click here for an explanation of pseudo-MPECs

 
 Astrometry: 
     P115ZhR  C2020 09 11AdqhKhm1(!-Zr`!LpZs_ZD#-3V@fJaiKOn9v%uwg/IMN$Tx^M]rKF51
     P115ZhR  C2020 09 11a%^Astrometryqy$ByeeJredacted;nYcj^8A%clickHjSvHat,4F51
     P115ZhR  C2020 09 141Y9L^xD^Vf7B+b6d%[(fm5oPjV!5WNsUr1f8hereI.CexajYcb\EF51
     P115ZhR  C2020 09 14N)4Dxdfor4T(6C`qoj(explanation[(+C%JBf;U)WkO,tcPMN?[F51
     P115ZhR  C2020 09 14VU%pMvf=X!yE$hAD]vM;h!@+inJ%$Y*O,Z;Ilp0;Zy\$\3,w!bx=F51

Station data:
(F51) Pan-STARRS 1, Haleakala  (N20.707235 W156.255910)  US/Hawaii.
   Observers N. Primak, A. Schultz, S. Watters, J. Thiel, T. Goggia. Measurer
   PS1 Science Consortium. 1.8-m Ritchey-Chrétien + CCD.

Orbital elements:  P115ZhR
   Perihelion 2020 Jun 13.309444 +/- 47.7 TT =  7:25:36 (JD 2459013.809444)
Epoch 2020 Sep 14.0 TT = JDT 2459106.5   Earth MOID: 0.3757   AutoNEOCP
M  20.13142514 +/- 32               (J2000 ecliptic)
n   0.21718960 +/- 0.248            Peri.  101.82244 +/- 50
a   2.74100625 +/- 2.09             Node   166.35719 +/- 8
e   0.5031328 +/- 0.249             Incl.    7.36683 +/- 2.3
P   4.54                   H 20.3   G  0.15   U 11.8  SR
q 1.36191594 +/- 0.374    Q 4.12009657 +/- 12064
From 5 observations 2020 Sept. 11-14; mean residual 0".08
Residuals in arcseconds: 
200911 F51  .02-  .14+    200914 F51  .14-  .02+    200914 F51  .10+  .04-    
200911 F51  .03+  .14-    200914 F51  .04+  .02+    

Ephemerides (geocentric):
Date (UTC) HH   RA              Dec         delta   r     elong  mag " sig PA
---- -- -- --  -------------   -----------  ------ ------ -----  --- ---- ---
2020 09 19 05  20 23 02.253   -15 50 06.23  .86455 1.6793 127.8 22.4  338  10
2020 09 19 06  20 23 06.065   -15 50 17.10  .86504 1.6796 127.7 22.4  343  10
2020 09 19 07  20 23 09.878   -15 50 27.95  .86552 1.6798 127.7 22.4  347  10
2020 09 19 08  20 23 13.692   -15 50 38.76  .86600 1.6800 127.7 22.4  352  10
2020 09 19 09  20 23 17.507   -15 50 49.54  .86648 1.6802 127.7 22.4  357  10
2020 09 19 10  20 23 21.323   -15 51 00.29  .86696 1.6805 127.6 22.4  361  10
2020 09 19 11  20 23 25.141   -15 51 11.01  .86745 1.6807 127.6 22.4  366  10
2020 09 19 12  20 23 28.959   -15 51 21.70  .86793 1.6809 127.6 22.4  371  10
2020 09 19 13  20 23 32.778   -15 51 32.36  .86841 1.6811 127.5 22.4  375  10
2020 09 19 14  20 23 36.599   -15 51 42.99  .86890 1.6814 127.5 22.4  380  10
2020 09 19 15  20 23 40.420   -15 51 53.59  .86938 1.6816 127.5 22.4  385  10
2020 09 19 16  20 23 44.243   -15 52 04.16  .86986 1.6818 127.5 22.4  389  10
2020 09 19 17  20 23 48.066   -15 52 14.70  .87035 1.6821 127.4 22.4  394  10
2020 09 19 18  20 23 51.891   -15 52 25.21  .87083 1.6823 127.4 22.4  399  10
2020 09 19 19  20 23 55.717   -15 52 35.69  .87131 1.6825 127.4 22.4  404  10
2020 09 19 20  20 23 59.543   -15 52 46.13  .87180 1.6827 127.4 22.4  409  10
2020 09 19 21  20 24 03.371   -15 52 56.55  .87228 1.6830 127.3 22.4  414  10
2020 09 19 22  20 24 07.200   -15 53 06.94  .87277 1.6832 127.3 22.4  418  10
2020 09 19 23  20 24 11.030   -15 53 17.29  .87325 1.6834 127.3 22.4  423  10
2020 09 20 00  20 24 14.860   -15 53 27.62  .87374 1.6836 127.3 22.4  428  10
2020 09 20 01  20 24 18.692   -15 53 37.92  .87422 1.6839 127.2 22.4  433   9
2020 09 20 02  20 24 22.525   -15 53 48.18  .87471 1.6841 127.2 22.4  438   9
2020 09 20 03  20 24 26.359   -15 53 58.42  .87520 1.6843 127.2 22.4  443   9
2020 09 20 04  20 24 30.194   -15 54 08.62  .87568 1.6846 127.2 22.4  448   9
2020 09 20 05  20 24 34.030   -15 54 18.80  .87617 1.6848 127.1 22.4  454   9
2020 09 20 06  20 24 37.867   -15 54 28.94  .87665 1.6850 127.1 22.4  459   9
2020 09 20 07  20 24 41.705   -15 54 39.06  .87714 1.6852 127.1 22.4  464   9
2020 09 20 08  20 24 45.544   -15 54 49.15  .87763 1.6855 127.1 22.4  469   9
2020 09 20 09  20 24 49.384   -15 54 59.20  .87812 1.6857 127.0 22.4  474   9
2020 09 20 10  20 24 53.225   -15 55 09.23  .87860 1.6859 127.0 22.4  479   9
2020 09 20 11  20 24 57.067   -15 55 19.22  .87909 1.6862 127.0 22.4  485   9
2020 09 20 12  20 25 00.911   -15 55 29.18  .87958 1.6864 126.9 22.4  490   9
2020 09 20 13  20 25 04.755   -15 55 39.12  .88007 1.6866 126.9 22.4  495   9
2020 09 20 14  20 25 08.600   -15 55 49.02  .88055 1.6868 126.9 22.4  500   9
2020 09 20 15  20 25 12.446   -15 55 58.90  .88104 1.6871 126.9 22.4  506   9
2020 09 20 16  20 25 16.293   -15 56 08.74  .88153 1.6873 126.8 22.4  511   9
2020 09 20 17  20 25 20.142   -15 56 18.56  .88202 1.6875 126.8 22.4  517   9
2020 09 20 18  20 25 23.991   -15 56 28.34  .88251 1.6877 126.8 22.4  522   9
2020 09 20 19  20 25 27.841   -15 56 38.10  .88300 1.6880 126.8 22.4  527   9
2020 09 20 20  20 25 31.692   -15 56 47.82  .88349 1.6882 126.7 22.4  533   9
2020 09 20 21  20 25 35.544   -15 56 57.52  .88398 1.6884 126.7 22.4  538   9
2020 09 20 22  20 25 39.398   -15 57 07.18  .88447 1.6887 126.7 22.4  544   9
2020 09 20 23  20 25 43.252   -15 57 16.82  .88496 1.6889 126.7 22.4  549   9
2020 09 21 00  20 25 47.107   -15 57 26.43  .88545 1.6891 126.6 22.4  555   9
2020 09 21 01  20 25 50.963   -15 57 36.00  .88594 1.6893 126.6 22.4  560   9
2020 09 21 02  20 25 54.821   -15 57 45.55  .88643 1.6896 126.6 22.4  566   9
2020 09 21 03  20 25 58.679   -15 57 55.06  .88692 1.6898 126.6 22.4  572   9
2020 09 21 04  20 26 02.538   -15 58 04.55  .88741 1.6900 126.5 22.4  577   9